BKP219 VTBS-VTCC

Flight info

Callsign BKP219
Flight time N/A
Altitude 34000
Route OLVUK1G OLVUK Y26 MARNI MARNI2B
Aircraft A319/M-SDE3FGHIRWY/LB1

Departure

Time 2026-05-01 11:19
Airport Suvarnabhumi Airport (VTBS)

Arrival

Time N/A
Airport Chiang Mai International Airport (VTCC)
Time Latitude Longitude Altitude Speed Heading
2026-05-01 10:50 13.69217 100.75525 13 ft 0 kts 284°
2026-05-01 11:09 13.69212 100.75543 13 ft 4 kts 282°
2026-05-01 11:09 13.69207 100.75571 16 ft 4 kts 278°
2026-05-01 11:10 13.69212 100.75621 15 ft 4 kts 213°
2026-05-01 11:10 13.69218 100.75625 16 ft 0 kts 194°
2026-05-01 11:12 13.69212 100.75623 16 ft 3 kts 194°
2026-05-01 11:13 13.69178 100.75615 13 ft 7 kts 189°
2026-05-01 11:13 13.69156 100.75656 13 ft 8 kts 103°
2026-05-01 11:13 13.69139 100.75733 13 ft 17 kts 103°
2026-05-01 11:13 13.69108 100.75860 13 ft 20 kts 104°
2026-05-01 11:14 13.69164 100.75913 13 ft 12 kts 18°
2026-05-01 11:14 13.69204 100.75975 12 ft 12 kts 101°
2026-05-01 11:14 13.69169 100.76061 12 ft 14 kts 128°
2026-05-01 11:14 13.69074 100.76079 12 ft 15 kts 194°
2026-05-01 11:15 13.69047 100.76071 15 ft 0 kts 195°
2026-05-01 11:19 13.68971 100.76051 14 ft 46 kts 194°
2026-05-01 11:19 13.68381 100.75896 31 ft 121 kts 193°
2026-05-01 11:19 13.67580 100.75764 373 ft 127 kts 185°
2026-05-01 11:19 13.66685 100.75673 907 ft 121 kts 181°
2026-05-01 11:20 13.65882 100.75677 1428 ft 118 kts 180°
2026-05-01 11:20 13.64991 100.75777 1710 ft 132 kts 179°
2026-05-01 11:20 13.64143 100.75689 2367 ft 115 kts 192°
2026-05-01 11:20 13.63263 100.75562 2572 ft 138 kts 182°
2026-05-01 11:21 13.62372 100.75576 3250 ft 123 kts 179°
2026-05-01 11:21 13.61366 100.75513 3343 ft 160 kts 184°
2026-05-01 11:21 13.60154 100.75468 3641 ft 189 kts 173°
2026-05-01 11:21 13.58781 100.75698 4012 ft 211 kts 168°
2026-05-01 11:22 13.57294 100.76084 4369 ft 231 kts 165°
2026-05-01 11:22 13.55707 100.76552 4905 ft 241 kts 164°
2026-05-01 11:22 13.54098 100.77039 5573 ft 245 kts 164°
2026-05-01 11:22 13.52448 100.77535 6266 ft 249 kts 165°
2026-05-01 11:23 13.50778 100.78030 6919 ft 251 kts 165°
2026-05-01 11:23 13.49066 100.78441 7581 ft 253 kts 174°
2026-05-01 11:23 13.47297 100.78442 8209 ft 256 kts 187°
2026-05-01 11:23 13.45571 100.77992 8830 ft 259 kts 203°
2026-05-01 11:24 13.44074 100.76961 9432 ft 263 kts 225°
2026-05-01 11:24 13.43098 100.75358 10188 ft 269 kts 249°
2026-05-01 11:24 13.43263 100.71495 11730 ft 280 kts 279°
2026-05-01 11:25 13.43153 100.69524 12448 ft 279 kts 248°
2026-05-01 11:25 13.40841 100.66306 13910 ft 283 kts 234°
2026-05-01 11:25 13.39860 100.64541 14558 ft 287 kts 245°
2026-05-01 11:26 13.39205 100.62587 15198 ft 291 kts 255°
2026-05-01 11:26 13.39993 100.58575 16380 ft 306 kts 308°
2026-05-01 11:26 13.41610 100.57125 16985 ft 312 kts 326°
2026-05-01 11:27 13.43529 100.56121 17540 ft 316 kts 338°
2026-05-01 11:27 13.45632 100.55454 18123 ft 319 kts 347°
2026-05-01 11:27 13.47838 100.55145 18577 ft 323 kts 356°
2026-05-01 11:27 13.50092 100.55263 19024 ft 326 kts
2026-05-01 11:28 13.52296 100.55849 19458 ft 329 kts 20°
2026-05-01 11:28 13.54435 100.56711 19907 ft 330 kts 20°
2026-05-01 11:28 13.56661 100.57192 20298 ft 329 kts 358°
2026-05-01 11:29 13.61245 100.57049 21104 ft 332 kts
2026-05-01 11:29 13.63557 100.57161 21499 ft 333 kts
2026-05-01 11:29 13.68194 100.57442 22235 ft 335 kts
2026-05-01 11:30 13.70525 100.57553 22597 ft 336 kts
2026-05-01 11:30 13.72863 100.57595 22947 ft 336 kts 356°
2026-05-01 11:30 13.75193 100.57377 23285 ft 337 kts 349°